Location: Gandikunta
(16.3784°N, 80.8378°E)
Time: 07:24:05
(UTC+00:00)

ARIANE 5 R/B - Pass Details

Date: 19 May 2025
Orbit: 544 x 17396 km, 6.8° (Epoch: 18 June)

Event Time Altitude Azimuth Distance (km) Brightness Sun altitude
Exits shadow 23:28:42 10° 240° (WSW) 3,094 4.4 -8.9°
Maximum altitude 23:32:18 15° 204° (SSW) 2,004 3.7 -8.1°
Drops below altitude 10° 23:34:46 10° 166° (SSE) 1,970 4.1 -7.5°
Sets 23:37:22 0° 137° (SE) 2,682 5.1 -7.0°
